AFR333 LFOB-EGKK

Flight info

Callsign AFR333
Flight time 0h 34m
Altitude 18000
Route OPALE T421 KUNAV
Aircraft A320/M-SDE3FGHIRWY/LB1

Departure

Time 2026-05-06 22:03
Airport Beauvais-Tillé airport (LFOB)

Arrival

Time 2026-05-06 22:37
Airport London Gatwick Airport (EGKK)
Time Latitude Longitude Altitude Speed Heading
2026-05-06 21:50 49.45770 2.11262 356 ft 0 kts 347°
2026-05-06 21:51 49.45757 2.11267 356 ft 4 kts 343°
2026-05-06 21:51 49.45732 2.11281 350 ft 4 kts 335°
2026-05-06 21:51 49.45708 2.11296 357 ft 4 kts
2026-05-06 21:52 49.45699 2.11295 351 ft 0 kts 68°
2026-05-06 21:56 49.45717 2.11329 357 ft 9 kts 46°
2026-05-06 21:56 49.45757 2.11388 352 ft 7 kts 42°
2026-05-06 21:56 49.45796 2.11462 354 ft 12 kts 76°
2026-05-06 21:57 49.45780 2.11485 353 ft 1 kts 254°
2026-05-06 21:57 49.45781 2.11477 351 ft 1 kts 283°
2026-05-06 21:57 49.45790 2.11483 350 ft 2 kts 58°
2026-05-06 21:57 49.45776 2.11535 350 ft 5 kts 128°
2026-05-06 21:58 49.45756 2.11573 351 ft 4 kts 131°
2026-05-06 21:58 49.45704 2.11614 349 ft 15 kts 180°
2026-05-06 21:58 49.45615 2.11516 351 ft 17 kts 221°
2026-05-06 21:58 49.45516 2.11376 345 ft 21 kts 221°
2026-05-06 21:59 49.45406 2.11370 336 ft 16 kts 117°
2026-05-06 21:59 49.45343 2.11508 335 ft 16 kts 124°
2026-05-06 21:59 49.45280 2.11653 334 ft 18 kts 123°
2026-05-06 21:59 49.45205 2.11828 332 ft 19 kts 124°
2026-05-06 22:00 49.45133 2.11989 330 ft 18 kts 124°
2026-05-06 22:00 49.45057 2.12160 329 ft 22 kts 123°
2026-05-06 22:00 49.45031 2.12416 328 ft 27 kts 93°
2026-05-06 22:00 49.45014 2.12697 324 ft 26 kts 109°
2026-05-06 22:01 49.44942 2.12893 317 ft 16 kts 123°
2026-05-06 22:01 49.44882 2.13037 314 ft 17 kts 122°
2026-05-06 22:01 49.44813 2.13191 311 ft 18 kts 126°
2026-05-06 22:01 49.44722 2.13297 307 ft 17 kts 178°
2026-05-06 22:02 49.44649 2.13189 311 ft 14 kts 261°
2026-05-06 22:02 49.44667 2.13067 311 ft 0 kts 299°
2026-05-06 22:02 49.44792 2.12772 317 ft 70 kts 304°
2026-05-06 22:03 49.45186 2.11872 340 ft 130 kts 304°
2026-05-06 22:03 49.45703 2.10567 729 ft 150 kts 301°
2026-05-06 22:03 49.46324 2.09146 1196 ft 171 kts 307°
2026-05-06 22:03 49.47198 2.07790 1584 ft 191 kts 337°
2026-05-06 22:04 49.48571 2.07641 2042 ft 214 kts 15°
2026-05-06 22:04 49.50072 2.08365 2580 ft 238 kts 17°
2026-05-06 22:04 49.51746 2.08624 3362 ft 251 kts 349°
2026-05-06 22:04 49.53386 2.07661 4330 ft 256 kts 337°
2026-05-06 22:05 49.55053 2.06666 5361 ft 259 kts 341°
2026-05-06 22:05 49.56784 2.05796 6327 ft 264 kts 341°
2026-05-06 22:05 49.58562 2.04941 7196 ft 270 kts 342°
2026-05-06 22:05 49.60369 2.04065 8142 ft 274 kts 341°
2026-05-06 22:06 49.62202 2.03155 9078 ft 278 kts 341°
2026-05-06 22:06 49.64052 2.02214 10012 ft 282 kts 341°
2026-05-06 22:06 49.65980 2.01217 10472 ft 303 kts 341°
2026-05-06 22:06 49.68053 2.00132 10776 ft 327 kts 341°
2026-05-06 22:07 49.70282 1.98956 11072 ft 349 kts 341°
2026-05-06 22:07 49.72618 1.97718 11677 ft 358 kts 341°
2026-05-06 22:07 49.74992 1.96461 12430 ft 363 kts 341°
2026-05-06 22:07 49.77399 1.95188 13198 ft 368 kts 341°
2026-05-06 22:08 49.79799 1.93922 13929 ft 373 kts 340°
2026-05-06 22:08 49.82265 1.92616 14592 ft 377 kts 340°
2026-05-06 22:08 49.84799 1.91271 15282 ft 380 kts 340°
2026-05-06 22:08 49.87312 1.89934 15959 ft 383 kts 340°
2026-05-06 22:09 49.89739 1.88323 16598 ft 386 kts 331°
2026-05-06 22:09 49.91993 1.86042 17244 ft 389 kts 321°
2026-05-06 22:09 49.94116 1.83414 17816 ft 392 kts 321°
2026-05-06 22:09 49.96258 1.80768 17975 ft 395 kts 321°
2026-05-06 22:10 49.98462 1.78054 18016 ft 413 kts 321°
2026-05-06 22:10 50.00754 1.75229 18011 ft 426 kts 321°
2026-05-06 22:10 50.03090 1.72344 18015 ft 430 kts 321°
2026-05-06 22:10 50.05435 1.69441 18011 ft 431 kts 321°
2026-05-06 22:11 50.07776 1.66518 18144 ft 432 kts 320°
2026-05-06 22:11 50.10082 1.63508 18704 ft 433 kts 319°
2026-05-06 22:11 50.12363 1.60423 19154 ft 436 kts 318°
2026-05-06 22:11 50.14641 1.57283 19593 ft 438 kts 317°
2026-05-06 22:12 50.16934 1.54105 19923 ft 441 kts 317°
2026-05-06 22:12 50.19233 1.50936 20000 ft 441 kts 318°
2026-05-06 22:12 50.21540 1.47775 20014 ft 441 kts 318°
2026-05-06 22:12 50.23846 1.44628 20013 ft 440 kts 318°
2026-05-06 22:13 50.26151 1.41474 20015 ft 440 kts 318°
2026-05-06 22:13 50.28451 1.38320 20015 ft 440 kts 318°
2026-05-06 22:13 50.30754 1.35164 20015 ft 440 kts 318°
2026-05-06 22:13 50.33053 1.32017 20018 ft 439 kts 318°
2026-05-06 22:14 50.35352 1.28865 20017 ft 439 kts 318°
2026-05-06 22:14 50.37652 1.25703 20018 ft 440 kts 318°
2026-05-06 22:14 50.39914 1.22583 20017 ft 440 kts 317°
2026-05-06 22:14 50.42207 1.19409 20016 ft 439 kts 317°
2026-05-06 22:15 50.44498 1.16236 20016 ft 439 kts 317°
2026-05-06 22:15 50.46790 1.13061 20017 ft 439 kts 317°
2026-05-06 22:15 50.49083 1.09887 20017 ft 439 kts 318°
2026-05-06 22:15 50.51372 1.06692 20013 ft 439 kts 315°
2026-05-06 22:16 50.53484 1.03231 20007 ft 439 kts 312°
2026-05-06 22:16 50.55560 0.99739 19769 ft 435 kts 312°
2026-05-06 22:16 50.57617 0.96269 19521 ft 432 kts 312°
2026-05-06 22:16 50.59658 0.92816 19122 ft 429 kts 312°
2026-05-06 22:17 50.61692 0.89372 18256 ft 428 kts 312°
2026-05-06 22:17 50.63716 0.85944 17387 ft 425 kts 312°
2026-05-06 22:17 50.65716 0.82550 16636 ft 420 kts 312°
2026-05-06 22:17 50.67688 0.79183 15896 ft 416 kts 311°
2026-05-06 22:18 50.69573 0.75763 15167 ft 411 kts 310°
2026-05-06 22:18 50.71378 0.72275 14451 ft 407 kts 308°
2026-05-06 22:18 50.73122 0.68784 13748 ft 403 kts 308°
2026-05-06 22:18 50.74836 0.65306 12970 ft 399 kts 308°
2026-05-06 22:19 50.76534 0.61869 12208 ft 395 kts 308°
2026-05-06 22:19 50.78222 0.58485 11473 ft 391 kts 308°
2026-05-06 22:19 50.79890 0.55176 10756 ft 387 kts 309°
2026-05-06 22:19 50.81567 0.51876 10044 ft 382 kts 309°
2026-05-06 22:20 50.83230 0.48614 9279 ft 378 kts 309°
2026-05-06 22:20 50.84870 0.45395 8515 ft 374 kts 309°
2026-05-06 22:20 50.86493 0.42201 7746 ft 370 kts 309°
2026-05-06 22:20 50.88088 0.39050 7194 ft 361 kts 309°
2026-05-06 22:21 50.89615 0.36024 7018 ft 342 kts 309°
2026-05-06 22:21 50.91045 0.33175 7017 ft 319 kts 309°
2026-05-06 22:21 50.92385 0.30502 7025 ft 299 kts 309°
2026-05-06 22:21 50.93638 0.28007 7031 ft 281 kts 309°
2026-05-06 22:22 50.94687 0.25515 7027 ft 264 kts 295°
2026-05-06 22:22 50.95325 0.22889 7023 ft 247 kts 291°
2026-05-06 22:22 50.95915 0.20377 7025 ft 241 kts 291°
2026-05-06 22:22 50.96498 0.17896 7029 ft 240 kts 291°
2026-05-06 22:23 50.97080 0.15421 7029 ft 240 kts 291°
2026-05-06 22:23 50.97661 0.12942 7027 ft 239 kts 291°
2026-05-06 22:23 50.98241 0.10459 7031 ft 239 kts 291°
2026-05-06 22:23 50.98819 0.07975 7028 ft 239 kts 291°
2026-05-06 22:24 50.99396 0.05498 7025 ft 239 kts 291°
2026-05-06 22:24 50.99976 0.03021 7024 ft 239 kts 291°
2026-05-06 22:24 51.00360 0.01378 7028 ft 239 kts 291°
2026-05-06 22:24 51.01124 -0.01908 7031 ft 239 kts 291°
2026-05-06 22:25 51.01698 -0.04394 7028 ft 240 kts 291°
2026-05-06 22:25 51.02272 -0.06879 7026 ft 239 kts 291°
2026-05-06 22:25 51.02847 -0.09363 7035 ft 239 kts 291°
2026-05-06 22:25 51.03229 -0.11011 7029 ft 239 kts 291°
2026-05-06 22:26 51.03810 -0.13525 7033 ft 239 kts 291°
2026-05-06 22:26 51.04377 -0.15974 6987 ft 240 kts 291°
2026-05-06 22:26 51.04955 -0.18468 6595 ft 241 kts 291°
2026-05-06 22:26 51.05534 -0.20973 6226 ft 241 kts 291°
2026-05-06 22:27 51.06107 -0.23467 5898 ft 240 kts 291°
2026-05-06 22:27 51.06676 -0.25955 5590 ft 239 kts 291°
2026-05-06 22:27 51.07245 -0.28437 5201 ft 241 kts 291°
2026-05-06 22:27 51.07343 -0.28863 5085 ft 243 kts 291°
2026-05-06 22:28 51.07918 -0.30939 5172 ft 224 kts 304°
2026-05-06 22:28 51.09021 -0.32666 4709 ft 228 kts 331°
2026-05-06 22:28 51.10565 -0.33278 4269 ft 231 kts
2026-05-06 22:28 51.12066 -0.32530 3960 ft 230 kts 33°
2026-05-06 22:29 51.13125 -0.30649 3506 ft 230 kts 64°
2026-05-06 22:29 51.13568 -0.28201 2981 ft 230 kts 77°
2026-05-06 22:29 51.13665 -0.25804 2970 ft 208 kts 102°
2026-05-06 22:29 51.12962 -0.23910 2993 ft 198 kts 139°
2026-05-06 22:30 51.11724 -0.23099 2773 ft 196 kts 177°
2026-05-06 22:30 51.10434 -0.23687 2447 ft 196 kts 218°
2026-05-06 22:30 51.09547 -0.25293 2089 ft 197 kts 238°
2026-05-06 22:30 51.08832 -0.27132 2015 ft 197 kts 240°
2026-05-06 22:31 51.08135 -0.29024 2012 ft 199 kts 241°
2026-05-06 22:31 51.07469 -0.30947 1992 ft 199 kts 251°
2026-05-06 22:31 51.07128 -0.33053 2036 ft 192 kts 259°
2026-05-06 22:31 51.06835 -0.35032 2015 ft 176 kts 258°
2026-05-06 22:32 51.06561 -0.36854 1989 ft 163 kts 259°
2026-05-06 22:32 51.06281 -0.38743 2032 ft 187 kts 259°
2026-05-06 22:32 51.06311 -0.40795 2005 ft 187 kts 291°
2026-05-06 22:32 51.07031 -0.42448 2009 ft 181 kts 326°
2026-05-06 22:33 51.08152 -0.43289 2008 ft 178 kts 349°
2026-05-06 22:33 51.09374 -0.43380 2005 ft 176 kts 11°
2026-05-06 22:33 51.10489 -0.42757 1998 ft 161 kts 32°
2026-05-06 22:33 51.11320 -0.41632 2023 ft 156 kts 50°
2026-05-06 22:34 51.11852 -0.40146 2012 ft 155 kts 69°
2026-05-06 22:34 51.12106 -0.38477 2012 ft 155 kts 76°
2026-05-06 22:34 51.12341 -0.36805 2013 ft 155 kts 76°
2026-05-06 22:34 51.12575 -0.35135 1997 ft 155 kts 76°
2026-05-06 22:35 51.12808 -0.33464 1871 ft 154 kts 75°
2026-05-06 22:35 51.13041 -0.31795 1690 ft 154 kts 76°
2026-05-06 22:35 51.13271 -0.30147 1471 ft 155 kts 77°
2026-05-06 22:35 51.13509 -0.28442 1239 ft 155 kts 77°
2026-05-06 22:36 51.13726 -0.26877 1029 ft 140 kts 77°
2026-05-06 22:36 51.13930 -0.25409 835 ft 133 kts 77°
2026-05-06 22:36 51.14129 -0.23981 660 ft 131 kts 77°
2026-05-06 22:36 51.14327 -0.22564 478 ft 131 kts 78°
2026-05-06 22:37 51.14518 -0.21151 309 ft 130 kts 78°
2026-05-06 22:37 51.14712 -0.19760 205 ft 123 kts 78°
2026-05-06 22:37 51.14806 -0.19067 207 ft 25 kts 76°
2026-05-06 22:37 51.14845 -0.18793 209 ft 26 kts 77°
2026-05-06 22:38 51.14934 -0.18543 209 ft 27 kts 56°
2026-05-06 22:38 51.15043 -0.18305 213 ft 27 kts 51°
2026-05-06 22:38 51.15136 -0.18090 213 ft 21 kts 38°
2026-05-06 22:38 51.15259 -0.18099 205 ft 18 kts 347°
2026-05-06 22:39 51.15389 -0.18144 207 ft 20 kts 348°
2026-05-06 22:39 51.15458 -0.18066 202 ft 12 kts 72°
2026-05-06 22:39 51.15451 -0.17966 214 ft 6 kts 155°
2026-05-06 22:39 51.15411 -0.17948 208 ft 5 kts 167°
2026-05-06 22:40 51.15404 -0.17945 205 ft 0 kts 167°